This is the latest recevied weather packets stored in our database for station/object N8QF-1. If no packets are shown the sender has not sent any weather packets the latest 10 day(s).
| Time | Temp. | Humidity | Pressure | Rain* | Wind** | Luminosity | Snow |
|---|---|---|---|---|---|---|---|
| 1778087334 | 13.89° C | 52% | 1013.4 hPa | 0 mm | - | - | - |
| 1778087034 | 13.89° C | 53% | 1013.3 hPa | 0 mm | - | - | - |
| 1778086733 | 13.89° C | 48% | 1013.5 hPa | 0 mm | - | - | - |
| 1778086433 | 13.89° C | 51% | 1013.5 hPa | 0 mm | - | - | - |
| 1778086132 | 13.33° C | 53% | 1013.6 hPa | 0 mm | - | - | - |
| 1778085832 | 12.78° C | 51% | 1013.5 hPa | 0 mm | - | - | - |
| 1778085531 | 13.33° C | 54% | 1013.6 hPa | 0 mm | - | - | - |
| 1778084930 | 13.33° C | 55% | 1013.4 hPa | 0 mm | - | - | - |
| 1778084630 | 12.78° C | 55% | 1013.5 hPa | 0 mm | - | - | - |
| 1778084329 | 12.78° C | 55% | 1013.4 hPa | 0 mm | - | - | - |
| 1778083728 | 13.33° C | 57% | 1013.3 hPa | 0 mm | - | - | - |
| 1778083427 | 12.22° C | 55% | 1013.4 hPa | 0 mm | - | - | - |
| 1778083126 | 12.78° C | 56% | 1013.6 hPa | 0 mm | - | - | - |
| 1778082826 | 12.78° C | 56% | 1013.4 hPa | 0 mm | - | - | - |
| 1778082525 | 12.22° C | 57% | 1013.3 hPa | 0 mm | - | - | - |
| 1778082224 | 12.22° C | 59% | 1013.3 hPa | 0 mm | - | - | - |
| 1778081924 | 11.67° C | 57% | 1013.5 hPa | 0 mm | - | - | - |
| 1778081623 | 12.22° C | 59% | 1013.8 hPa | 0 mm | - | - | - |
| 1778081323 | 11.67° C | 59% | 1013.5 hPa | 0 mm | - | - | - |
| 1778081022 | 12.22° C | 58% | 1013.5 hPa | 0 mm | - | - | - |
| 1778080722 | 11.67° C | 62% | 1013.5 hPa | 0 mm | - | - | - |
| 1778080517 | 11.67° C | 59% | 1013.3 hPa | 0 mm | - | - | - |
| 1778080421 | 11.67° C | 59% | 1013.3 hPa | 0 mm | - | - | - |
| 1778080120 | 11.67° C | 60% | 1013.1 hPa | 0 mm | - | - | - |
| 1778079819 | 11.67° C | 62% | 1012.9 hPa | 0 mm | - | - | - |
* Rain latest hour (hover to see other rain measurements)
** Current wind speed in m/s (hover to see current wind gust speed)